DW3838 Weather Reports


Display with metric or nautical units.
time (UTC)temp
F
wind
direction
speed
MPH
gust
MPH
rain 1hr
in
rain 24hr
in
rain mn
in
humidity
%
barometer
mb
20260902131546 56 196 0.0 0.0 0.08 0.17 0.17 92 1016.0
20260902130044 56 196 0.0 0.0 0.05 0.13 0.13 91 1015.9
20260902124543 56 196 0.0 0.0 0.08 0.12 0.12 91 1015.8
20260902123042 56 196 0.0 0.0 0.10 0.12 0.12 91 1015.8
20260902121547 56 196 0.0 0.0 0.08 0.09 0.09 91 1015.9
20260902120043 56 196 0.0 0.0 0.07 0.08 0.08 91 1015.8
20260902114544 56 196 0.0 0.0 0.03 0.04 0.04 91 1015.8
20260902113043 56 196 0.0 0.0 0.00 0.01 0.01 91 1016.0
20260902111539 56 196 0.0 0.0 0.00 0.01 0.01 90 1015.9
20260902110042 56 196 0.0 0.0 0.00 0.01 0.01 90 1015.8
20260902104553 56 196 0.0 0.0 0.01 0.01 0.01 90 1015.8
20260902103033 57 196 0.0 0.0 0.01 0.01 0.01 90 1016.2
20260902101532 57 196 0.0 0.0 0.01 0.01 0.01 90 1016.3
20260902094529 58 196 0.0 0.0 0.00 0.00 0.00 90 1016.3
20260902093030 58 196 0.0 0.0 0.00 0.00 0.00 90 1016.4
20260902091525 58 196 0.0 0.0 0.00 0.00 0.00 90 1016.5
20260902090025 58 196 0.0 0.0 0.00 0.00 0.00 90 1016.6
20260902084522 58 196 0.0 0.0 0.00 0.00 0.00 90 1016.7
20260902083020 59 196 0.0 0.0 0.00 0.00 0.00 90 1016.8
20260902081517 59 196 0.0 4.0 0.00 0.00 0.00 90 1016.8
20260902080015 59 200 0.0 3.0 0.00 0.00 0.00 90 1016.7
20260902074508 59 198 0.0 0.0 0.00 0.00 0.00 90 1016.7
20260902073003 59 198 0.0 0.0 0.00 0.00 0.00 90 1016.7
20260902071501 59 198 0.0 5.0 0.00 0.00 0.00 90 1016.7
20260902070100 58 193 0.0 0.0 0.00 0.00 0.00 90 1016.7
20260902064605 58 190 0.0 0.0 0.00 0.00 0.00 90 1016.6
20260902063132 58 190 0.0 0.0 0.00 0.00 0.00 90 1016.6
20260902061559 58 184 1.0 5.0 0.00 0.00 0.00 90 1016.5
20260902060131 58 198 0.0 0.0 0.00 0.00 0.00 90 1016.6
20260902054558 58 198 0.0 0.0 0.00 0.00 0.00 90 1016.7
20260902053057 59 198 0.0 5.0 0.00 0.00 0.00 90 1016.7
20260902051604 59 169 0.0 0.0 0.00 0.00 0.00 88 1016.7
20260902050056 60 45 0.0 0.0 0.00 0.00 0.00 88 1016.6
20260902044555 60 45 0.0 0.0 0.00 0.00 0.00 88 1016.6
20260902043101 60 182 0.0 3.0 0.00 0.00 0.00 88 1016.5
20260902041553 60 194 0.0 3.0 0.00 0.00 0.00 87 1016.3
20260902040053 61 224 1.0 7.0 0.00 0.00 0.00 86 1016.2
20260902034553 61 177 0.0 5.0 0.00 0.00 0.00 85 1016.1
20260902033056 61 167 0.0 2.0 0.00 0.00 0.00 85 1016.1
20260902031552 61 154 0.0 3.0 0.00 0.00 0.00 84 1016.1
20260902030054 61 181 0.0 6.0 0.00 0.00 0.00 83 1016.0
20260902024601 61 146 1.0 7.0 0.00 0.00 0.00 82 1015.7
20260902023055 61 167 0.0 5.0 0.00 0.00 0.00 80 1015.8
20260902021551 62 23 0.0 4.0 0.00 0.00 0.00 79 1015.8
20260902020109 62 194 0.0 9.0 0.00 0.00 0.00 79 1015.7
20260902014558 63 190 0.0 6.0 0.00 0.00 0.00 78 1015.8
20260902013049 63 146 0.0 6.0 0.00 0.00 0.00 78 1015.9
20260902011548 63 123 1.0 9.0 0.00 0.00 0.00 77 1015.9
20260902010050 64 136 2.0 9.0 0.00 0.00 0.00 75 1015.8
20260902004548 65 173 3.0 9.0 0.00 0.00 0.00 74 1015.8
20260902003047 65 233 4.0 12.0 0.00 0.00 0.00 72 1015.8
20260902001547 66 240 4.0 11.0 0.00 0.00 0.00 69 1015.7
20260902000047 66 184 1.0 10.0 0.00 0.00 0.00 69 1015.7
20260901234601 66 159 4.0 11.0 0.00 0.00 0.00 67 1015.7
20260901233052 67 161 2.0 9.0 0.00 0.00 0.00 66 1015.8
20260901231545 68 197 2.0 14.0 0.00 0.00 0.00 61 1015.7
20260901230051 69 144 4.0 13.0 0.00 0.00 0.00 61 1015.7
20260901224549 68 144 1.0 8.0 0.00 0.00 0.00 63 1015.8
20260901223051 69 259 7.0 19.0 0.00 0.00 0.00 62 1015.9
20260901221607 70 125 6.0 18.0 0.00 0.00 0.00 60 1016.0
20260901220044 71 197 1.0 7.0 0.00 0.00 0.00 59 1016.1
20260901214543 69 205 6.0 14.0 0.00 0.00 0.00 59 1016.2
20260901213043 69 172 5.0 13.0 0.00 0.00 0.00 59 1016.0
20260901211541 71 186 5.0 14.0 0.00 0.00 0.00 56 1015.9
20260901210039 69 249 4.0 12.0 0.00 0.00 0.00 57 1015.9
20260901204539 70 203 3.0 13.0 0.00 0.00 0.00 58 1015.9
20260901203048 69 135 0.0 7.0 0.00 0.00 0.00 62 1016.0
20260901201544 67 155 3.0 11.0 0.00 0.00 0.00 63 1016.2
20260901200034 68 194 1.0 9.0 0.00 0.00 0.00 62 1016.2
20260901194533 67 206 4.0 10.0 0.00 0.00 0.00 61 1016.4
20260901193033 68 198 1.0 7.0 0.00 0.00 0.00 61 1016.3
20260901191529 66 212 4.0 9.0 0.00 0.00 0.00 67 1016.4
20260901190033 65 134 1.0 7.0 0.00 0.00 0.00 66 1016.5
20260901184529 66 184 0.0 7.0 0.00 0.00 0.00 67 1016.5
20260901183024 65 176 0.0 7.0 0.00 0.00 0.00 72 1016.5
20260901181524 65 162 2.0 8.0 0.00 0.00 0.00 71 1016.5
20260901180020 64 206 1.0 7.0 0.00 0.00 0.00 78 1016.5
20260901174517 63 229 3.0 7.0 0.00 0.00 0.00 79 1016.5
20260901173016 63 188 0.0 6.0 0.00 0.00 0.00 79 1016.2
20260901171512 63 161 0.0 5.0 0.00 0.00 0.00 79 1016.1
20260901170015 63 346 1.0 8.0 0.00 0.00 0.00 80 1015.8
20260901164508 62 186 0.0 4.0 0.00 0.00 0.00 84 1015.9
20260901163005 61 333 0.0 4.0 0.00 0.00 0.00 86 1016.0
20260901161501 60 221 0.0 1.0 0.00 0.00 0.00 89 1015.8
20260901160104 59 325 0.0 0.0 0.00 0.00 0.00 89 1015.8
20260901154558 59 342 0.0 0.0 0.00 0.00 0.00 89 1015.8
20260901153057 59 338 0.0 4.0 0.00 0.00 0.00 88 1015.7
20260901151554 59 333 1.0 6.0 0.00 0.00 0.00 88 1015.5
20260901150051 59 312 0.0 3.0 0.00 0.00 0.00 89 1015.3
20260901144547 58 199 0.0 0.0 0.00 0.00 0.00 90 1015.1
20260901143045 58 199 0.0 0.0 0.00 0.00 0.00 90 1014.8
20260901141543 58 217 0.0 4.0 0.00 0.00 0.00 90 1014.5
20260901140039 58 151 0.0 6.0 0.00 0.00 0.00 90 1014.4
20260901134555 57 168 0.0 0.0 0.00 0.00 0.00 90 1014.2
20260901133035 57 168 0.0 3.0 0.00 0.00 0.00 90 1014.0